Location: ??????
(56.0120°N, 39.1740°E)
Time: 14:46:55
(UTC+00:00)

Cosmos 1758 Rocket - Pass Details

Date: 14 April 2026
Orbit: 595 x 628 km, 82.5° (Epoch: 17 May)

Event Time Altitude Azimuth Distance (km) Brightness Sun altitude
Rises 22:16:03 0° 346° (NNW) 2,855 8.0 -23.4°
Reaches altitude 10° 22:18:16 10° 344° (NNW) 1,947 6.9 -23.3°
Enters shadow 22:22:27 70° 272° (W) 640 3.5 -23.2°
